Location: Newark
(35.6799°N, 139.7636°E)
Time: 21:33:27
(UTC+00:00)

Transit 2A - Pass Details

Date: 10 December 2019
Orbit: 601 x 957 km, 66.7° (Epoch: 18 January)

Event Time Altitude Azimuth Distance (km) Brightness Sun altitude
Rises 05:30:02 0° 353° (N) 2,872 8.6 18.1°
Reaches altitude 10° 05:33:22 10° 20° (NNE) 1,997 7.7 17.6°
Maximum altitude 05:35:37 14° 51° (NE) 1,797 7.4 17.3°
Drops below altitude 10° 05:37:56 10° 81° (E) 2,061 7.8 17.0°
Sets 05:41:28 0° 108° (ESE) 3,041 8.8 16.5°
